#timestamp,LO_Frequency,Hit,StdDev 
1546182015.2,286046998.1,N
1546182035.9,286047000.8,N
1546182055.7,286047000.6,N
1546182075.6,286046999.9,N
1546182095.4,286047000.0,N
1546182115.2,286046999.8,N
1546182135.1,286046999.9,N
1546182136.0,286046999.9,N
1546182155.8,286047000.8,N
1546182175.7,286047000.3,N
1546182195.5,286047000.6,N
1546182215.3,286047002.7,N
1546182235.2,286047002.8,N
1546182255.0,286047000.5,N
1546182255.9,286047000.5,N
1546182275.8,286046998.4,N
1546182295.6,286047004.0,N
1546182315.4,286047004.3,N
1546182335.3,286047001.6,N
1546182355.1,286047000.5,N
1546182375.8,286046998.6,N
1546182395.7,286047000.5,N
1546182415.5,286046999.9,N
1546182435.3,286047000.9,N
1546182455.2,286046998.2,N
1546182475.0,286047000.6,N
1546182475.9,286047000.6,N
1546182495.8,286047001.8,N
1546182515.6,286047001.8,N
1546182535.4,286047001.7,N
1546182555.3,286047001.8,N
1546182575.1,286047001.8,N
1546182595.9,286047002.4,N
1546182615.7,286046999.8,N
1546182635.5,286046999.8,N
1546182655.4,286047000.6,N
1546182675.2,286047002.8,N
1546182695.0,286047003.3,N
1546182695.9,286047003.3,N
1546182715.8,286047003.5,N
1546182735.6,286047003.9,N
1546182755.5,286047003.6,N
1546182775.3,286047003.0,N
1546182795.1,286047005.7,Y
1546182815.9,286047001.3,P
1546182835.7,286047001.3,P
1546182855.6,286047001.5,P
1546182875.4,286047003.7,Y
1546182895.2,286047003.6,P
1546182915.1,286047002.6,N
1546182916.0,286047002.6,N
1546182935.8,286047004.3,Y
1546182955.7,286047001.3,P
1546182975.5,286047002.6,P
1546182995.3,286047000.5,N
1546183015.2,286047001.2,N
1546183035.0,286046999.3,N
1546183035.9,286046999.3,N
1546183055.7,286046997.1,N
1546183075.6,286046996.5,N
1546183095.4,286046996.8,N
1546183115.3,286046999.3,N
1546183135.1,286046997.0,N
1546183136.0,286046997.0,N
1546183155.8,286046999.0,N
1546183175.7,286046996.8,N
1546183195.5,286046997.0,N
1546183215.4,286046996.8,N
1546183235.2,286046996.7,N
1546183255.0,286046999.3,N
1546183255.9,286046999.3,N
1546183275.8,286046998.9,N
1546183295.6,286046997.0,N
1546183315.4,286046998.9,N
1546183335.3,286046999.6,N
1546183355.1,286046999.6,N
1546183375.9,286047000.6,N
1546183395.7,286047002.5,N
1546183415.5,286047000.6,N
1546183435.4,286047000.3,N
1546183455.2,286047000.9,N
1546183475.0,286047001.1,N
1546183475.9,286047001.1,N
1546183495.8,286047000.3,N
1546183515.6,286047000.6,N
1546183535.4,286046997.0,N
1546183555.3,286046999.5,N
1546183575.1,286046999.1,N
1546183595.9,286046997.2,N
1546183615.7,286046997.5,N
1546183635.5,286047000.7,N
1546183655.4,286046998.4,N
1546183675.2,286046999.5,N
1546183695.0,286046999.5,N
1546183696.0,286046999.5,N
1546183715.8,286046997.0,N
1546183735.6,286046996.7,N
1546183755.5,286046997.1,N
1546183775.3,286046999.5,N
1546183795.1,286046996.6,N
1546183815.9,286046999.4,N
1546183835.7,286046999.2,N
1546183855.6,286046997.1,N
1546183875.4,286046998.0,N
1546183895.2,286046995.4,N
1546183915.1,286046999.0,N
1546183916.0,286046999.0,N
1546183935.8,286046998.2,N
1546183955.7,286046999.3,N
1546183975.5,286046999.3,N
1546183995.3,286046999.0,N
1546184015.2,286046998.9,N
1546184035.0,286046997.1,N
1546184035.9,286046997.1,N
1546184055.7,286046997.8,N
1546184075.6,286046999.5,N
1546184095.4,286046998.3,N
1546184115.3,286047001.2,N
1546184135.1,286046998.3,N
1546184155.8,286046996.6,N
1546184175.7,286046997.5,N
1546184195.5,286046996.8,N
1546184215.4,286046998.8,N
1546184235.2,286047000.9,N
1546184255.0,286047000.1,N
1546184255.9,286047000.1,N
1546184275.8,286046998.1,N
1546184295.6,286046999.1,N
1546184315.4,286046998.2,N
1546184335.3,286046997.5,N
1546184355.1,286046994.9,Y
1546184375.9,286046997.1,P
1546184395.7,286046998.9,N
1546184415.5,286047001.1,N
1546184435.4,286047000.7,N
1546184455.2,286047002.0,N
1546184475.1,286047002.3,N
1546184476.0,286047002.3,N
1546184525.8,286047001.4,E
1546184535.7,286047001.6,N
1546184555.6,286047002.8,P
1546184575.4,286047001.3,N
1546184595.3,286047002.5,Y
1546184615.1,286046996.7,P
1546184635.8,286046996.9,N
1546184655.7,286046997.9,N
1546184675.5,286046995.4,N
1546184695.4,286046995.0,N
1546184715.2,286046994.9,N
1546184735.0,286046998.6,N
1546184735.9,286046998.6,N
1546184755.8,286046998.8,N
1546184775.6,286046999.3,N
1546184795.4,286046996.7,N
1546184815.3,286046996.5,N
1546184835.1,286046996.9,N
1546184855.8,286046999.0,N
1546184875.7,286046997.6,N
1546184895.5,286046997.1,N
1546184915.4,286046996.1,N
1546184935.2,286046995.0,N
1546184955.0,286046995.1,N
1546184955.9,286046995.1,N
1546184975.8,286046995.3,N
1546184995.6,286046995.6,N
1546185015.5,286046996.1,N
1546185035.3,286046995.6,N
1546185055.1,286046995.0,N
1546185075.9,286046995.7,N
1546185095.7,286046993.5,Y
1546185115.6,286046999.6,P
1546185135.4,286046997.6,N
1546185155.2,286046998.6,N
1546185175.1,286046998.3,N
1546185176.0,286046998.3,N
1546185195.8,286046999.5,N
1546185215.6,286046999.3,N
1546185235.5,286046997.1,Y
1546185255.3,286047001.6,P
1546185275.2,286047000.0,N
1546185295.9,286047000.6,N
1546185315.7,286047000.7,N
1546185335.6,286046998.3,N
1546185355.4,286047002.4,N
1546185375.2,286047003.9,N
1546185395.1,286047002.0,N
1546185396.0,286047002.0,N
1546185415.8,286047000.0,N
1546185435.7,286047001.0,N
1546185455.5,286047000.9,N
1546185475.3,286047001.0,N
1546185495.2,286047001.7,N
1546185515.0,286047003.7,N
1546185515.9,286047003.7,N
1546185535.8,286047003.9,N
1546185555.6,286047005.5,Y
1546185575.4,286047002.0,P
1546185595.3,286047000.0,N
